Regional Weather Roundup
Issued by NWS

Home | Current Version | Previous Version | Graphics & Text | Print | Product List | Glossary On
Versions: 1 2 3 4 5 6 7 8 9 10 11 12 13 14 15 16 17 18 19 20 21 22 23 24 25 26 27 28 29 30 31 32 33 34 35 36 37 38 39 40 41 42 43 44 45 46 47 48 49 50
000
ASUS43 KLMK 220202
RWRKY
KENTUCKY REGIONAL WEATHER ROUNDUP
NATIONAL WEATHER SERVICE LOUISVILLE KY
900 PM EST SUN DEC 21 2014

NOTE "FAIR" INDICATES FEW OR NO CLOUDS BELOW 12,000 FEET
WITH NO SIGNIFICANT WEATHER AND/OR OBSTRUCTIONS TO VISIBILITY.

KYZ001>023-026-027-061>063-070>075-220300-
WESTERN AND SOUTH CENTRAL KENTUCKY

CITY           SKY/WX    TMP DP  RH WIND       PRES   REMARKS
PADUCAH        CLEAR     34  28  79 E3        30.03S
HENDERSON      CLEAR     34  27  75 E7        30.07F WCI  28
OWENSBORO      CLEAR     38  29  70 E8        30.08F WCI  32
HOPKINSVILLE   CLEAR     39  29  69 E3        30.04F
BOWLING GREEN  CLOUDY    43  29  57 E8        30.07F
GLASGOW        NOT AVBL
$$

KYZ024-025-028>034-038-045-046-053-220300-
NORTH CENTRAL KENTUCKY

CITY           SKY/WX    TMP DP  RH WIND       PRES   REMARKS
LOUISVILLE/SDF CLEAR     35  28  75 E3        30.12F
LOUISVILLE/LOU CLEAR     36  28  73 E6        30.12F WCI  31
FORT KNOX      PTCLDY    34  28  79 NE6       30.09F WCI  29
$$

KYZ035>037-039>044-047>052-055>060-089>105-220300-
NORTHEAST KENTUCKY

CITY           SKY/WX    TMP DP  RH WIND       PRES   REMARKS
LEXINGTON      PTCLDY    32  27  81 E9        30.13S WCI  24
COVINGTON      PTCLDY    29  23  78 E6        30.14F WCI  23
FRANKFORT      CLEAR     31  26  82 NE5       30.12F WCI  26
$$

KYZ054-064>069-076>088-106>120-220300-
SOUTHEAST KENTUCKY

CITY           SKY/WX    TMP DP  RH WIND       PRES   REMARKS
JACKSON        PTCLDY    36  25  64 NE3       30.13R
LONDON         CLOUDY    39  27  62 CALM      30.10F
SOMERSET       NOT AVBL
MIDDLESBORO    MOCLDY    36  33  90 CALM      30.12S
MONTICELLO     CLOUDY    38  30  73 CALM      30.12F
$$




USA.gov is the U.S. government's official web portal to all federal, state and local government web resources and services.